Regional Weather Roundup
Issued by NWS

Home | Current Version | Previous Version | Text Only | Print | Product List | Glossary On
Versions: 1 2 3 4 5 6 7 8 9 10 11 12 13 14 15 16 17 18 19 20 21 22 23 24 25 26 27 28 29 30 31 32 33 34 35 36 37 38 39 40 41 42 43 44 45 46 47 48 49 50
000
ASUS43 KOAX 260310
RWRNE

WEATHER ROUNDUP FOR NEBRASKA
NATIONAL WEATHER SERVICE OMAHA NE
900 PM CST TUE NOV 25 2014

NOTES: SATELLITE DATA IS BEING USED TO AUGMENT CLOUD COVER ABOVE
       12000 FEET.
       "FAIR" INDICATES FEW OR NO CLOUDS BELOW 12,000 FEET WITH NO
       SIGNIFICANT WEATHER AND/OR OBSTRUCTIONS TO VISIBILITY.

  * THESE STATIONS DO NOT REPORT WEATHER SUCH AS RAIN...SNOW OR FOG.

NEZ001>004-019>022-054>056-260400-
NEBRASKA PANHANDLE

CITY           SKY/WX    TMP DP  RH WIND       PRES   REMARKS
SCOTTSBLUFF    CLOUDY    34 N/A N/A NW14      30.00R WCI  25
ALLIANCE       CLOUDY    36  25  64 NW24G32   29.94R WCI  24
CHADRON        CLOUDY    45  27  49 W18G30    29.96R
KIMBALL        LGT SNOW  31  30  96 N10       29.97R WCI  22
SIDNEY         LGT SNOW  33  31  92 NW12      29.98R FOG     WCI  24
$$

NEZ057>060-069>072-079>082-260400-
SOUTHWEST NEBRASKA

CITY           SKY/WX    TMP DP  RH WIND       PRES   REMARKS
NORTH PLATTE   CLOUDY    40  31  70 NW12      29.90R WCI  33
IMPERIAL       CLOUDY    40  31  70 NW18      29.93R WCI  31
LEXINGTON      CLOUDY    40  31  68 NW9       29.89S WCI  34
MCCOOK         CLOUDY    44  28  53 N12       29.90R
OGALLALA       CLOUDY    40  34  78 NW15      29.92R WCI  32
$$

NEZ005>010-023>029-035>040-094-260400-
NORTH CENTRAL NEBRASKA

CITY           SKY/WX    TMP DP  RH WIND       PRES   REMARKS
VALENTINE      CLOUDY    37  29  72 NW17G28   29.87R WCI  27
AINSWORTH      CLOUDY    37  30  77 NW18      29.85R WCI  27
BROKEN BOW     CLOUDY    40  29  64 NW14      29.86R WCI  32
O`NEILL        DRIZZLE   38  35  89 NW13      29.82R WCI  30
ORD            CLOUDY    39  31  72 NW17      29.83R WCI  30
THEDFORD       CLOUDY    38  32  78 NW16      29.89R WCI  29
$$

NEZ041-046>049-061>064-073>077-083>087-260400-
SOUTH CENTRAL NEBRASKA

CITY           SKY/WX    TMP DP  RH WIND       PRES   REMARKS
GRAND ISLAND   CLOUDY    41  23  48 W14       29.85R
AURORA         CLOUDY    41  23  49 SW12      29.84S
HASTINGS       CLOUDY    42  22  44 W9        29.85S
HEBRON         CLOUDY    44  22  40 S15       29.87F
HOLDREGE       CLOUDY    42  27  54 NW13      29.88S
KEARNEY *      CLOUDY    41  27  56 W13       29.89R
YORK           CLOUDY    41  25  52 SW10      29.84F
$$

NEZ011>018-030>034-042>045-260400-
NORTHEAST NEBRASKA

CITY           SKY/WX    TMP DP  RH WIND       PRES   REMARKS
NORFOLK        CLOUDY    39  31  72 E3        29.79F
ALBION         CLOUDY    40  26  57 W9        29.80S WCI  34
BLAIR          LGT RAIN  40  26  58 S8        29.89F WCI  35
COLUMBUS *     CLOUDY    43  25  49 S7        29.84F
FREMONT        CLOUDY    43  29  58 SE6       29.86F
TEKAMAH        LGT RAIN  39  28  64 S10       29.89F WCI  32
WAYNE          LGT RAIN  37  34  88 S10       29.83F WCI  30
$$

NEZ050>053-065>068-078-088>093-260400-
SOUTHEAST NEBRASKA

CITY           SKY/WX    TMP DP  RH WIND       PRES   REMARKS
LINCOLN        CLOUDY    42  25  50 S9        29.88F
OMAHA EPPLEY   CLOUDY    40  24  53 S16       29.92F WCI  31
BEATRICE       CLOUDY    42  26  52 S12G18    29.89S
FALLS CITY     CLOUDY    38  23  55 S12       29.96F WCI  30
NEBRASKA CITY  CLOUDY    38  20  48 S15G21    29.93F WCI  30
PLATTSMOUTH    CLOUDY    37  23  55 SE9       29.91F WCI  31
$$

NEZ044-045-051>053-067-260400-
OMAHA AREA

CITY           SKY/WX    TMP DP  RH WIND       PRES   REMARKS
OMAHA EPPLEY   CLOUDY    40  24  53 S16       29.92F WCI  31
BLAIR          LGT RAIN  40  26  58 S8        29.89F WCI  35
FREMONT        CLOUDY    43  29  58 SE6       29.86F
MILLARD        CLOUDY    40  26  56 SE8       29.90F WCI  35
OFFUTT AFB     CLOUDY    38  24  55 SE10      29.91F WCI  31
PLATTSMOUTH    CLOUDY    37  23  55 SE9       29.91F WCI  31
WAHOO          CLOUDY    40  26  58 SE10      29.86F WCI  34
$$



USA.gov is the U.S. government's official web portal to all federal, state and local government web resources and services.